• Join FlightAware (Why Join?)
  • Login
  • US Flag 
07:40PM EST


 

Airport Tracker/Info


-or-


 

Live Flight TrackerFlight Track Log ✈ AWE997 ✈ 22-May-2013 ✈ KORD - KPHL

Flight Track Log - Related Links

Times and Time Zones

All times are in EDT time to prevent confusion due to time zone crossing. See the AWE997 flight status page for this flight to view local times or setup timezone preferences in your user account.

Time Position Orientation Groundspeed Altitude Reporting Facility
EDT Latitude Longitude Course Direction KTS MPH feet Rate Location/Type
10:57AM 41.9520 -87.9010 223° Southwest 164 189 1,600  Level FlightAware
10:57AM 41.9400 -87.9060 197° South 164 189 2,600 3,840 Climbing FlightAware
10:57AM 41.9320 -87.9030 164° South 164 189 3,200 2,308 Climbing FlightAware
10:58AM 41.9160 -87.8880 145° Southeast 161 185 4,100 1,627 Climbing FlightAware
10:58AM 41.9010 -87.8650 131° Southeast 168 193 4,800 1,091 Climbing FlightAware
10:59AM 41.8870 -87.8450 133° Southeast 201 231 5,100 600 Climbing FlightAware
10:59AM 41.8770 -87.8270 127° Southeast 233 268 5,200 200 Climbing FlightAware
10:59AM 41.8710 -87.8040 109° East 271 312 5,200 1,636 Level FlightAware
11:00AM 41.8740 -87.7320 87° East 296 341 6,700 2,400 Climbing FlightAware
11:00AM 41.8790 -87.7060 76° East 297 342 7,400 2,933 Climbing FlightAware
11:01AM 41.8880 -87.6490 78° East 300 345 8,900 2,571 Climbing FlightAware
11:01AM 41.8930 -87.6030 82° East 307 353 9,800 2,282 Climbing FlightAware
11:02AM 41.9020 -87.5160 82° East 320 368 11,600 2,329 Climbing FlightAware
11:02AM 41.9090 -87.4370 83° East 329 379 13,100 1,735 Climbing FlightAware
11:03AM 41.9190 -87.3450 82° East 366 421 14,000 1,518 Climbing FlightAware
11:04AM 41.9280 -87.2500 83° East 383 441 15,200 2,000 Climbing FlightAware
11:05AM 41.9370 -87.1500 83° East 389 448 16,700 2,163 Climbing FlightAware
11:05AM 41.9460 -87.0450 83° East 386 444 18,300 1,976 Climbing FlightAware
11:06AM 41.9470 -86.9490 89° East 392 451 19,500 1,271 Climbing FlightAware
11:07AM 41.9490 -86.8350 89° East 420 483 20,100 706 Climbing FlightAware
11:07AM 41.9500 -86.7320 89° East 441 507 20,500 835 Climbing FlightAware
11:08AM 41.9520 -86.6220 89° East 454 522 21,200 1,000 Climbing FlightAware
11:09AM 41.9530 -86.4910 89° East 466 536 21,900 975 Climbing FlightAware
11:09AM 41.9540 -86.3960 89° East 472 543 22,500 1,200 Climbing FlightAware
11:10AM 41.9550 -86.2470 89° East 475 547 23,600 1,133 Climbing FlightAware
11:11AM 41.9480 -86.1270 94° East 478 550 24,200 963 Climbing FlightAware
11:12AM 41.9370 -86.0070 97° East 482 555 24,900 1,116 Climbing FlightAware
11:12AM 41.9240 -85.8720 97° East 484 557 25,800 1,091 Climbing FlightAware
11:13AM 41.9120 -85.7420 97° East 486 559 26,500 1,084 Climbing FlightAware
11:14AM 41.9000 -85.6220 98° East 488 562 27,300 1,050 Climbing FlightAware
11:14AM 41.8880 -85.4980 97° East 491 565 27,900 867 Climbing FlightAware
11:15AM 41.8760 -85.3800 98° East 493 567 28,500 1,091 Climbing FlightAware
11:16AM 41.8620 -85.2340 97° East 491 565 29,500 1,231 Climbing FlightAware
11:16AM 41.8520 -85.1420 98° East 487 560 30,100 1,291 Climbing FlightAware
11:17AM 41.8390 -85.0050 97° East 479 551 31,200 1,188 Climbing FlightAware
11:18AM 41.8230 -84.8510 98° East 478 550 32,000 867 Climbing FlightAware
11:19AM 41.8110 -84.7360 98° East 478 550 32,500 900 Climbing FlightAware
11:19AM 41.7990 -84.6210 98° East 475 547 33,200 857 Climbing FlightAware
11:20AM 41.7850 -84.4930 98° East 476 548 33,700 643 Climbing FlightAware
11:21AM 41.7780 -84.3790 95° East 485 558 34,100 714 Climbing FlightAware
11:21AM 41.7770 -84.2360 90° East 484 557 34,700 643 Climbing FlightAware
11:22AM 41.7760 -84.1250 91° East 485 558 35,000 225 Climbing FlightAware
11:23AM 41.7750 -83.9990 91° East 491 565 35,000  Level FlightAware
11:24AM 41.7740 -83.8190 90° East 494 568 35,000  Level FlightAware
11:24AM 41.7730 -83.6970 91° East 495 570 35,000  Level FlightAware
11:25AM 41.7680 -83.5170 92° East 491 565 35,000  Level FlightAware
11:26AM 41.7560 -83.3980 98° East 490 564 35,000  Level FlightAware
11:27AM 41.7440 -83.2720 97° East 490 564 35,000  Level FlightAware
11:27AM 41.7320 -83.1530 98° East 490 564 35,000  Level FlightAware
11:28AM 41.7180 -83.0130 98° East 490 564 35,000  Level FlightAware
11:29AM 41.7080 -82.9140 98° East 490 564 35,000 71 Level FlightAware
11:30AM 41.6920 -82.7570 98° East 486 559 35,100  Climbing FlightAware
11:30AM 41.6800 -82.6390 98° East 484 557 35,000 -74 Descending FlightAware
11:31AM 41.6700 -82.5330 97° East 484 557 35,000  Level FlightAware
11:32AM 41.6560 -82.4090 99° East 482 555 35,000  Level FlightAware
11:32AM 41.6410 -82.2630 98° East 482 555 35,000  Level FlightAware
11:33AM 41.6300 -82.1650 99° East 482 555 35,000  Level FlightAware
11:34AM 41.6140 -82.0160 98° East 480 552 35,000  Level FlightAware
11:34AM 41.6010 -81.9020 99° East 480 552 35,000  Level FlightAware
11:35AM 41.5880 -81.7850 98° East 479 551 35,000  Level FlightAware
11:36AM 41.5730 -81.6510 98° East 478 550 35,000  Level FlightAware
11:37AM 41.5590 -81.5270 99° East 478 550 35,000  Level FlightAware
11:37AM 41.5450 -81.3990 98° East 479 551 35,000  Level FlightAware
11:38AM 41.5290 -81.2830 100° East 479 551 35,000  Level FlightAware
11:39AM 41.4970 -81.1680 110° East 471 542 35,000  Level FlightAware
11:39AM 41.4490 -81.0710 123° Southeast 465 535 35,000  Level FlightAware
11:40AM 41.3910 -80.9890 133° Southeast 462 532 35,000  Level FlightAware
11:41AM 41.3380 -80.9150 134° Southeast 461 531 35,000  Level FlightAware
11:41AM 41.2730 -80.8250 134° Southeast 461 531 35,000  Level FlightAware
11:42AM 41.2020 -80.7270 134° Southeast 462 532 35,000  Level FlightAware
11:43AM 41.1350 -80.6350 134° Southeast 462 532 35,000  Level FlightAware
11:44AM 41.0750 -80.5530 134° Southeast 461 531 35,000  Level FlightAware
11:44AM 41.0090 -80.4630 134° Southeast 460 529 35,000  Level FlightAware
11:45AM 40.9490 -80.3810 134° Southeast 461 531 35,000  Level FlightAware
11:46AM 40.8830 -80.2910 134° Southeast 462 532 35,000  Level FlightAware
11:46AM 40.8300 -80.2030 129° Southeast 466 536 35,000  Level FlightAware
11:47AM 40.7880 -80.1090 121° Southeast 470 541 35,000  Level FlightAware
11:48AM 40.7440 -79.9890 116° Southeast 473 544 35,000  Level FlightAware
11:48AM 40.7120 -79.8990 115° Southeast 473 544 35,000  Level FlightAware
11:49AM 40.6620 -79.7630 116° Southeast 471 542 35,000  Level FlightAware
11:50AM 40.6340 -79.6860 116° Southeast 471 542 35,000  Level FlightAware
11:51AM 40.5890 -79.5620 116° Southeast 471 542 35,000  Level FlightAware
11:51AM 40.5650 -79.4490 106° East 472 543 35,000  Level FlightAware
11:52AM 40.5450 -79.3290 102° East 471 542 35,000  Level FlightAware
11:53AM 40.5250 -79.2050 102° East 470 541 35,000  Level FlightAware
11:53AM 40.5070 -79.0990 103° East 470 541 35,000  Level FlightAware
11:54AM 40.4860 -78.9700 102° East 471 542 35,000  Level FlightAware
11:55AM 40.4670 -78.8590 103° East 473 544 35,000  Level FlightAware
11:55AM 40.4480 -78.7470 103° East 473 544 35,000 -494 Level FlightAware
11:56AM 40.4270 -78.6230 103° East 470 541 34,300 -1,482 Descending FlightAware
11:57AM 40.4080 -78.5130 103° East 476 548 32,900 -2,541 Descending FlightAware
11:58AM 40.3860 -78.3860 103° East 478 550 30,700 -2,682 Descending FlightAware
11:58AM 40.3660 -78.2680 103° East 468 539 29,100 -2,302 Descending FlightAware
11:59AM 40.3440 -78.1450 103° East 461 531 27,400 -1,259 Descending FlightAware
12:00PM 40.3310 -78.0610 101° East 461 531 27,400  Level FlightAware
12:00PM 40.3120 -77.9490 103° East 461 531 27,400  Level FlightAware
12:01PM 40.2970 -77.8560 102° East 461 531 27,400 -2,571 Level FlightAware
12:02PM 40.2910 -77.6570 92° East 479 551 23,200 -2,571 Descending FlightAware
12:03PM 40.2820 -77.5590 97° East 479 551 23,200 -713 Level FlightAware
12:04PM 40.2580 -77.3750 100° East 470 541 22,000 -813 Descending FlightAware
12:04PM 40.2420 -77.2650 101° East 491 565 21,900 -1,119 Descending FlightAware
12:05PM 40.2311 -77.1750 99° East 484 557 20,900 -2,143 Descending FlightAware ADS-B
12:05PM 40.2198 -77.0833 99° East 467 537 19,900 -1,481 Descending FlightAware ADS-B
12:06PM 40.2053 -76.9643 99° East 438 504 19,000 -1,385 Descending FlightAware ADS-B
12:07PM 40.1953 -76.8829 99° East 414 476 18,100 -1,818 Descending FlightAware ADS-B
12:07PM 40.1850 -76.8009 99° East 407 468 17,000 -2,123 Descending FlightAware ADS-B
12:08PM 40.1754 -76.7258 99° East 403 464 15,800 -2,190 Descending FlightAware ADS-B
12:08PM 40.1661 -76.6512 99° East 398 458 14,700 -2,000 Descending FlightAware ADS-B
12:09PM 40.1565 -76.5759 99° East 387 445 13,700 -2,000 Descending FlightAware ADS-B
12:09PM 40.1475 -76.5053 99° East 385 443 12,600 -2,032 Descending FlightAware ADS-B
12:10PM 40.1382 -76.4334 100° East 378 435 11,600 -1,645 Descending FlightAware ADS-B
12:10PM 40.1293 -76.3641 100° East 375 432 10,900 -1,219 Descending FlightAware ADS-B
12:11PM 40.1203 -76.2925 99° East 360 414 10,300 -727 Descending FlightAware ADS-B
12:11PM 40.1154 -76.2243 95° East 328 377 10,100 -367 Descending FlightAware ADS-B
12:12PM 40.1134 -76.1943 95° East 319 367 10,000 -968 Descending FlightAware ADS-B
12:12PM 40.1113 -76.1644 95° East 316 364 9,600 -1,500 Descending FlightAware ADS-B
12:12PM 40.1092 -76.1332 95° East 314 361 9,200 -1,412 Descending FlightAware ADS-B
12:12PM 40.1069 -76.1000 95° East 311 358 8,800 -1,273 Descending FlightAware ADS-B
12:13PM 40.1049 -76.0716 95° East 309 356 8,500 -1,355 Descending FlightAware ADS-B
12:13PM 40.1030 -76.0433 95° East 306 352 8,100 -1,355 Descending FlightAware ADS-B
12:13PM 40.1010 -76.0140 95° East 305 351 7,800 -1,273 Descending FlightAware ADS-B
12:13PM 40.0988 -75.9836 95° East 303 349 7,400 -1,500 Descending FlightAware ADS-B
12:14PM 40.0968 -75.9554 95° East 301 346 7,000 -1,400 Descending FlightAware ADS-B
12:14PM 40.0949 -75.9280 95° East 299 344 6,700 -968 Descending FlightAware ADS-B
12:14PM 40.0930 -75.9006 95° East 291 335 6,500 -1,161 Descending FlightAware ADS-B
12:14PM 40.0911 -75.8740 95° East 288 331 6,100 -968 Descending FlightAware ADS-B
12:15PM 40.0891 -75.8464 95° East 290 334 6,000 -188 Descending FlightAware ADS-B
12:15PM 40.0871 -75.8187 95° East 292 336 6,000  Level FlightAware ADS-B
12:15PM 40.0851 -75.7913 95° East 291 335 6,000  Level FlightAware ADS-B
12:16PM 40.0831 -75.7625 95° East 290 334 6,000  Level FlightAware ADS-B
12:16PM 40.0812 -75.7363 95° East 290 334 6,000  Level FlightAware ADS-B
12:16PM 40.0798 -75.7068 94° East 289 333 6,000  Level FlightAware ADS-B
12:16PM 40.0787 -75.6801 93° East 290 334 6,000  Level FlightAware ADS-B
12:17PM 40.0775 -75.6496 93° East 290 334 6,000  Level FlightAware ADS-B
12:17PM 40.0761 -75.6199 94° East 292 336 6,000  Level FlightAware ADS-B
12:17PM 40.0746 -75.5883 94° East 291 335 6,000  Level FlightAware ADS-B
12:17PM 40.0732 -75.5586 94° East 292 336 6,000  Level FlightAware ADS-B
12:18PM 40.0719 -75.5319 94° East 294 338 6,000  Level FlightAware ADS-B
12:18PM 40.0706 -75.5033 93° East 294 338 6,000  Level FlightAware ADS-B
12:18PM 40.0693 -75.4766 94° East 294 338 6,000  Level FlightAware ADS-B
12:19PM 40.0679 -75.4474 94° East 295 339 6,000  Level FlightAware ADS-B
12:19PM 40.0664 -75.4188 94° East 295 339 6,000  Level FlightAware ADS-B
12:19PM 40.0650 -75.3900 94° East 295 339 6,000  Level FlightAware ADS-B
12:19PM 40.0636 -75.3619 94° East 295 339 6,000  Level FlightAware ADS-B
12:20PM 40.0621 -75.3337 94° East 294 338 6,000  Level FlightAware ADS-B
12:20PM 40.0609 -75.3089 94° East 294 338 6,000  Level FlightAware ADS-B
12:20PM 40.0596 -75.2823 94° East 294 338 6,000  Level FlightAware ADS-B
12:20PM 40.0585 -75.2608 94° East 294 338 6,000  Level FlightAware ADS-B
12:20PM 40.0579 -75.2544 97° East 292 336 6,000  Level FlightAware ADS-B
12:20PM 40.0566 -75.2442 99° East 287 330 6,000  Level FlightAware ADS-B
12:21PM 40.0525 -75.2231 104° East 271 312 6,000  Level FlightAware ADS-B
12:21PM 40.0470 -75.1970 105° East 254 292 6,000  Level FlightAware ADS-B
12:21PM 40.0424 -75.1754 106° East 238 274 6,000  Level FlightAware ADS-B
12:21PM 40.0382 -75.1549 105° East 228 262 6,000  Level FlightAware ADS-B
12:22PM 40.0338 -75.1332 105° East 223 257 6,000  Level FlightAware ADS-B
12:22PM 40.0318 -75.1250 108° East 222 255 6,000  Level FlightAware ADS-B
12:22PM 40.0297 -75.1196 117° Southeast 219 252 6,000  Level FlightAware ADS-B
12:22PM 40.0264 -75.1136 126° Southeast 216 249 6,000  Level FlightAware ADS-B
12:22PM 40.0230 -75.1088 133° Southeast 215 247 6,000 -316 Level FlightAware ADS-B
12:22PM 40.0130 -75.0948 133° Southeast 212 244 5,900 -1,235 Descending FlightAware ADS-B
12:23PM 40.0006 -75.0767 132° Southeast 207 238 5,300 -2,000 Descending FlightAware ADS-B
12:23PM 39.9901 -75.0620 133° Southeast 205 236 4,700 -2,211 Descending FlightAware ADS-B
12:23PM 39.9879 -75.0592 136° Southeast 204 235 4,600 -2,182 Descending FlightAware ADS-B
12:23PM 39.9819 -75.0535 144° Southeast 202 232 4,300 -2,000 Descending FlightAware ADS-B
12:23PM 39.9765 -75.0496 151° Southeast 201 231 4,100 -2,182 Descending FlightAware ADS-B
12:23PM 39.9636 -75.0417 155° Southeast 199 229 3,500 -2,276 Descending FlightAware ADS-B
12:24PM 39.9521 -75.0349 156° South 201 231 3,000 -1,833 Descending FlightAware ADS-B
12:24PM 39.9323 -75.0266 162° South 202 232 2,400 -1,080 Descending FlightAware ADS-B
12:25PM 39.9155 -75.0474 224° Southwest 202 232 2,100 -514 Descending FlightAware ADS-B
12:25PM 39.9125 -75.0538 239° Southwest 188 216 2,100  Level FlightAware ADS-B
12:25PM 39.9094 -75.0613 242° Southwest 188 216 2,100  Level FlightAware ADS-B
12:25PM 39.9073 -75.0676 247° West 189 217 2,100  Level FlightAware ADS-B
12:25PM 39.9046 -75.0779 251° West 189 217 2,100  Level FlightAware ADS-B
12:25PM 39.9026 -75.0865 253° West 188 216 2,100 -522 Level FlightAware ADS-B
12:25PM 39.8992 -75.1024 254° West 173 199 1,900 -968 Descending FlightAware ADS-B
12:26PM 39.8961 -75.1179 255° West 160 184 1,600 -968 Descending FlightAware ADS-B
12:26PM 39.8934 -75.1316 256° West 146 168 1,400 -600 Descending FlightAware ADS-B
12:26PM 39.8909 -75.1440 255° West 140 161 1,300 -649 Descending FlightAware ADS-B
12:27PM 39.8873 -75.1620 255° West 142 163 1,000 -811 Descending FlightAware ADS-B
12:27PM 39.8848 -75.1746 256° West 144 166 800 -706 Descending FlightAware ADS-B
12:27PM 39.8819 -75.1902 256° West 141 162 600 -667 Descending FlightAware ADS-B
12:27PM 39.8790 -75.2043 255° West 140 161 400 -706 Descending FlightAware ADS-B